Wichita Jabara, KS

2:29 PM CST on February 24, 2018 (GMT -0600)
Col Jabara

Weather History for KAAO - March, 2014

Change the Weather History Date:

Friday, March 21, 2014

  Actual Average (KIAB) Record (KIAB)
Temperature  
Mean Temperature 55 °F -  
Max Temperature 66 °F 58 °F 84 °F (1997)
Min Temperature 46 °F 37 °F 19 °F (2002)
Degree Days  
Heating Degree Days 10    
Growing Degree Days 5 (Base 50)    
Moisture  
Dew Point 29 °F    
Average Humidity 39    
Maximum Humidity 50    
Minimum Humidity 24    
Precipitation  
Precipitation 0.00 in - - ()
Sea Level Pressure  
Sea Level Pressure 29.87 in    
Wind  
Wind Speed 14 mph (NNE)    
Max Wind Speed 22 mph    
Max Gust Speed 31 mph    
Visibility 10 miles    
Events      
Averages and records for this station are not official NWS values.
T = Trace of Precipitation, MM = Missing Value Source: NWS Daily Summary

Daily Weather History Graph

Daily Weather History Graph

Search for Another Location

Airport or City:

Trip Planner

Search our weather history database for the weather conditions in past years. The results will help you decide how hot, cold, wet, or windy it might be!

Date:

Astronomy

Mar. 21, 2014 Rise Set
Actual Time 7:30 AM CDT 7:41 PM CDT
Civil Twilight 7:04 AM CDT 8:07 PM CDT
Nautical Twilight 6:34 AM CDT 8:38 PM CDT
Astronomical Twilight 6:03 AM CDT 9:09 PM CDT
Moon No Moon Rise 10:28 AM CDT (3/21)
Length of Visible Light 13h 03m
Length of Day
12h 10m
Waning Gibbous, 75% of the Moon is Illuminated
Mar 21
Waning Gibbous
Mar 23
Last Quarter
Mar 30
New
Apr 7
First Quarter
Apr 15
Full

Hourly Weather History & Observations

Time (CDT) Temp. Windchill Dew Point Humidity Pressure Visibility Wind Dir Wind Speed Gust Speed Precip Events Conditions
12:54 AM 48.9 °F - 30.9 °F 50% 29.84 in 10.0 mi SSE 8.1 mph - N/A   Clear
1:54 AM 51.1 °F - 30.0 °F 44% 29.82 in 10.0 mi SSE 12.7 mph - N/A   Clear
2:54 AM 51.1 °F - 30.9 °F 46% 29.78 in 10.0 mi SSE 12.7 mph - N/A   Clear
3:54 AM 52.0 °F - 30.9 °F 45% 29.73 in 10.0 mi SSE 17.3 mph - N/A   Clear
4:54 AM 53.1 °F - 30.0 °F 41% 29.68 in 10.0 mi SSE 19.6 mph - N/A   Clear
5:54 AM 54.0 °F - 30.9 °F 41% 29.67 in 10.0 mi South 17.3 mph 25.3 mph N/A   Clear
6:54 AM 53.1 °F - 30.9 °F 43% 29.67 in 10.0 mi South 18.4 mph 28.8 mph N/A   Clear
7:54 AM 52.0 °F - 33.1 °F 49% 29.70 in 10.0 mi South 10.4 mph - N/A   Clear
8:54 AM 53.1 °F - 34.0 °F 48% 29.74 in 10.0 mi SSW 11.5 mph - N/A   Clear
9:54 AM 55.0 °F - 34.0 °F 45% 29.78 in 10.0 mi West 6.9 mph - N/A   Clear
10:54 AM 55.9 °F - 34.0 °F 44% 29.81 in 10.0 mi North 16.1 mph - N/A   Clear
11:54 AM 57.9 °F - 33.1 °F 39% 29.85 in 10.0 mi North 17.3 mph - N/A   Clear
12:54 PM 57.9 °F - 30.9 °F 36% 29.88 in 10.0 mi North 21.9 mph - N/A   Clear
1:54 PM 63.0 °F - 28.0 °F 27% 29.88 in 10.0 mi North 21.9 mph 31.1 mph N/A   Clear
2:54 PM 63.0 °F - 30.9 °F 30% 29.90 in 10.0 mi NNE 19.6 mph 26.5 mph N/A   Clear
3:54 PM 63.0 °F - 30.9 °F 30% 29.91 in 10.0 mi North 18.4 mph 24.2 mph N/A   Clear
4:54 PM 64.9 °F - 28.9 °F 26% 29.92 in 10.0 mi North 20.7 mph 28.8 mph N/A   Clear
5:54 PM 64.0 °F - 26.1 °F 24% 29.94 in 10.0 mi North 20.7 mph 28.8 mph N/A   Clear
6:54 PM 60.1 °F - 25.0 °F 26% 29.98 in 10.0 mi North 12.7 mph - N/A   Clear
7:54 PM 55.9 °F - 23.0 °F 28% 30.01 in 10.0 mi North 12.7 mph - N/A   Clear
8:54 PM 50.0 °F - 24.1 °F 36% 30.05 in 10.0 mi North 8.1 mph - N/A   Clear
9:54 PM 46.0 °F 41.4 °F 25.0 °F 44% 30.08 in 10.0 mi North 9.2 mph - N/A   Clear
10:54 PM 50.0 °F - 25.0 °F 38% 30.12 in 10.0 mi North 15.0 mph - N/A   Clear
11:54 PM 46.9 °F - 27.0 °F 46% 30.14 in 10.0 mi North 18.4 mph 26.5 mph N/A   Clear